Wind_Speed
59 59 59 58 58 57 58 57 56 55 55 55 54 52 51 50 49 48 47 46 46 46 46 45 44 43 41 39 36 35 33 32 32 31 31 31 31 31 31 31 32 32 33 33 34 35 36 37 37 38 38 39 39 40 40 40 41 41 41 41 41 41 42 42 42 43 43 44 45 46 46 46 46 47 47 49 50 51 52 54 55 56 57 58 58 59
59 59 58 57 56 56 56 56 55 54 53 53 52 51 49 48 48 47 46 46 45 45 44 44 42 41 39 37 35 33 32 31 30 30 29 29 29 29 30 30 31 32 32 33 34 35 36 37 37 38 39 39 40 40 41 41 41 42 42 42 42 42 42 42 43 43 43 43 44 45 45 45 45 45 45 45 44 44 45 46 48 50 51 54 57 60
57 57 57 56 55 55 55 54 54 53 51 50 50 49 48 47 46 46 46 45 45 44 43 42 40 39 37 35 34 32 31 30 29 28 28 28 28 28 29 30 31 32 33 33 34 35 36 36 37 37 38 38 39 40 40 41 42 42 43 43 43 44 44 44 44 43 43 43 44 44 45 45 45 44 43 41 40 40 40 42 42 42 42 46 49 52
56 56 56 56 55 54 53 52 52 51 50 49 48 47 46 46 46 46 45 45 44 43 42 40 38 37 36 35 33 32 30 29 28 27 27 27 28 29 30 30 31 32 32 33 34 34 35 35 35 36 36 37 37 38 39 40 41 41 42 43 44 44 45 45 45 45 44 44 44 44 44 44 44 44 42 40 39 39 40 41 40 39 40 41 43 44
55 55 54 54 54 53 52 51 50 49 49 48 47 45 45 45 45 45 45 44 43 42 41 39 38 37 36 35 33 31 30 29 28 27 27 28 29 29 30 31 31 31 32 32 32 33 33 34 34 34 35 35 36 37 37 38 39 40 41 42 43 44 45 45 46 46 46 45 45 44 44 44 44 44 43 42 41 41 41 41 40 40 40 41 41 42
55 53 53 52 52 52 51 50 49 48 47 47 46 45 44 44 45 45 45 44 43 42 40 39 37 36 35 34 33 32 30 29 28 28 28 29 30 30 30 30 30 31 31 31 32 32 33 33 33 34 34 34 35 36 37 37 38 39 40 41 42 43 44 45 46 46 46 46 46 45 45 44 44 44 43 43 44 44 45 44 44 43 43 43 43 43
54 53 51 51 50 50 50 49 48 46 45 45 45 45 45 44 44 44 44 44 43 41 40 38 37 36 35 35 33 32 31 30 29 29 29 30 30 30 30 30 30 30 30 31 31 32 32 32 33 33 33 34 34 35 36 37 38 39 40 40 41 42 43 44 45 46 46 46 46 46 45 45 44 44 43 43 43 44 45 46 47 47 47 47 47 46
52 52 51 50 49 49 48 48 46 45 44 44 45 46 46 45 45 44 43 43 42 41 40 39 38 37 35 34 33 32 31 30 30 30 30 30 30 30 30 30 29 29 30 30 31 31 32 32 32 32 33 33 34 35 36 37 38 39 39 40 40 41 42 43 44 44 45 45 46 46 45 45 44 44 43 43 42 42 43 45 46 48 49 49 50 49
51 50 50 49 48 47 47 47 46 45 44 44 45 45 46 46 45 44 43 42 41 40 40 39 38 37 35 34 33 32 31 31 30 30 31 31 31 30 30 30 29 29 29 30 30 31 31 31 31 32 32 33 34 35 36 37 37 38 39 39 40 40 41 41 42 43 43 44 44 44 45 44 44 44 43 43 42 42 42 42 44 45 47 48 49 50
50 49 48 48 47 46 46 45 45 45 45 45 45 45 45 45 45 45 44 42 41 39 39 38 38 37 35 34 32 32 31 31 30 30 31 31 31 31 31 30 29 29 29 29 29 29 30 30 31 31 32 33 34 35 35 36 37 37 38 39 39 40 40 41 41 41 42 42 42 43 43 43 43 43 43 42 42 41 41 41 42 43 44 46 47 48
49 48 48 47 47 46 45 45 45 45 45 45 45 45 44 43 43 44 44 43 41 39 38 37 37 37 36 35 33 32 31 31 30 30 31 31 32 32 31 31 30 29 29 29 29 29 30 30 31 31 32 33 33 34 35 35 36 37 37 38 39 39 39 40 40 40 40 41 41 41 41 41 41 42 42 42 41 41 41 41 41 41 42 43 44 45
47 47 47 46 46 46 45 45 45 45 44 44 44 44 43 41 41 42 42 42 41 40 39 37 36 35 36 35 34 33 32 31 31 31 31 32 33 33 33 31 30 29 29 29 29 29 30 31 31 32 32 32 33 33 34 35 35 36 37 37 38 38 39 39 39 39 40 40 40 40 40 40 40 40 40 40 40 40 40 40 40 40 40 41 41 42
46 45 45 45 45 44 44 44 45 44 44 43 42 42 42 41 41 41 41 41 41 40 39 38 36 35 34 35 35 35 34 33 32 32 32 33 34 34 34 32 31 30 30 30 30 30 30 31 31 32 32 32 32 33 33 34 35 36 36 37 37 38 38 38 39 39 39 39 39 39 39 39 39 39 39 39 39 39 39 39 39 39 39 39 40 40
44 44 44 44 44 44 43 44 44 43 43 41 41 41 41 41 41 41 41 41 40 39 39 38 37 35 34 34 35 36 35 35 34 33 33 34 34 34 34 33 32 31 30 31 31 31 31 31 32 32 32 32 32 33 34 34 35 35 36 36 37 37 37 37 38 38 38 38 38 38 38 38 38 37 37 38 38 38 38 38 38 38 38 38 39 39
43 43 43 43 44 43 43 43 42 42 41 40 39 39 40 40 40 40 40 40 39 38 38 37 36 35 34 35 35 36 37 36 36 35 35 34 34 34 34 34 33 32 31 31 32 32 32 32 32 33 33 33 33 33 34 34 35 35 36 36 36 36 37 37 37 37 37 37 37 37 37 36 36 36 36 36 36 36 36 36 37 37 37 37 38 38
42 42 43 43 43 43 42 42 41 41 40 39 38 38 39 39 39 39 39 38 38 38 37 37 37 36 35 34 34 36 37 38 37 37 37 36 34 33 34 34 34 32 32 32 32 32 33 33 33 33 33 33 33 33 34 34 35 35 35 35 36 36 36 36 36 36 36 35 35 35 35 34 34 34 33 33 33 33 33 33 33 34 34 35 36 36
42 42 43 43 43 43 42 41 40 39 38 38 38 38 38 38 38 38 37 37 37 36 36 37 38 38 37 35 34 35 37 38 38 38 38 37 35 33 33 34 34 33 32 32 33 34 34 34 34 34 34 33 33 33 33 34 34 34 34 34 34 34 34 34 34 34 34 33 33 32 32 32 31 31 30 30 29 29 29 29 29 30 30 31 32 33
42 42 42 43 43 42 41 39 38 37 36 36 37 37 37 37 37 36 36 35 35 36 36 37 38 39 39 39 36 35 36 38 39 39 39 37 35 34 33 34 34 34 33 33 34 35 35 35 35 34 33 33 32 32 32 32 32 32 32 32 32 32 32 32 32 32 31 31 31 30 30 29 28 28 27 27 26 26 25 25 25 25 26 26 27 28
42 42 42 42 41 40 39 38 36 35 35 35 36 36 36 36 35 34 34 34 34 35 37 38 39 40 40 40 38 36 36 37 38 39 39 38 36 34 33 34 34 34 33 34 34 35 36 35 34 32 31 31 30 31 31 31 31 31 31 30 30 30 30 29 29 29 29 28 28 28 27 26 26 25 25 24 24 24 23 23 23 23 24 24 24 25
42 41 40 40 39 38 37 36 34 34 34 34 35 35 35 34 34 33 33 34 34 36 37 38 39 40 40 40 38 37 36 37 38 39 40 39 37 35 34 34 34 34 33 34 34 35 35 34 33 31 29 28 28 29 29 30 30 29 29 28 28 27 27 26 26 25 25 25 25 24 24 23 23 23 22 22 22 22 22 22 22 22 22 23 23 24
42 41 38 37 36 36 35 34 33 32 32 33 33 33 34 33 33 33 33 34 35 36 38 39 40 40 40 40 39 37 36 37 38 39 40 40 38 36 34 34 34 34 34 34 34 35 35 33 31 29 27 26 27 27 28 28 28 28 27 26 25 25 24 23 22 22 22 21 21 21 21 21 21 21 21 21 21 21 20 21 21 21 21 22 22 23
40 39 37 34 33 33 33 33 32 31 31 31 31 31 32 33 33 33 34 35 36 37 38 39 40 40 40 40 38 37 36 36 37 39 40 40 39 36 34 34 34 34 34 34 35 34 33 31 28 26 24 24 24 25 26 26 26 25 24 24 22 22 21 20 20 19 19 19 19 19 19 20 20 20 20 20 20 20 20 20 20 21 21 21 21 22
38 37 35 33 31 31 31 31 31 30 29 29 29 29 31 32 33 34 35 36 37 38 39 40 41 40 40 39 37 36 35 35 36 38 40 41 39 37 35 34 34 34 34 35 35 34 32 29 26 23 22 22 22 23 23 23 23 22 21 20 19 19 18 18 18 18 18 19 19 19 19 19 20 20 20 20 21 21 21 21 22 22 22 22 22 23
35 34 32 31 30 30 30 29 29 28 28 28 28 29 30 32 33 34 36 37 38 39 40 41 41 40 39 37 36 34 33 34 35 36 38 40 39 37 35 34 34 34 34 34 35 34 31 27 23 20 19 19 20 20 21 20 20 19 18 18 17 17 17 18 18 19 19 19 19 20 20 20 20 21 21 21 22 22 23 23 23 24 24 24 25 25
32 31 30 29 28 28 28 27 27 27 26 27 28 29 31 32 34 35 36 37 38 39 40 40 40 39 37 36 34 33 32 33 33 35 37 38 38 37 35 34 35 35 34 34 33 32 29 24 20 17 17 17 18 18 18 18 17 16 16 16 16 17 17 18 19 19 20 20 20 21 21 21 21 22 22 23 23 24 24 25 25 26 26 27 27 28
29 28 28 27 26 26 25 25 25 25 26 27 28 30 32 33 35 36 37 37 37 38 38 38 38 37 36 35 34 33 32 32 33 34 36 37 38 36 35 34 35 35 35 34 33 31 28 22 18 15 15 15 16 16 15 15 15 14 14 15 15 16 17 18 19 19 20 20 20 21 21 21 22 23 23 24 25 25 26 27 27 28 29 29 30 31
26 26 25 25 24 24 24 24 24 25 26 27 29 31 33 34 35 36 36 36 36 36 36 36 36 35 35 34 34 33 32 32 32 34 35 37 37 37 35 35 35 36 35 34 32 29 26 21 16 13 13 13 14 14 14 14 13 13 13 14 14 15 16 17 18 18 19 19 19 20 20 21 22 23 23 24 25 26 27 28 28 29 30 31 32 33
24 23 23 23 22 23 23 24 25 26 27 28 30 31 33 34 34 34 34 34 33 33 33 33 33 34 34 34 34 33 32 32 32 34 35 37 37 37 36 36 35 36 36 35 31 27 24 20 16 13 12 12 12 13 13 13 13 13 13 13 14 15 16 16 17 18 19 19 20 21 22 23 23 24 25 26 27 27 28 28 29 30 31 32 33 34
22 21 21 21 22 23 24 25 26 27 28 29 30 31 32 32 32 32 32 31 31 30 30 31 31 33 34 35 35 34 32 32 32 34 35 36 37 37 36 36 36 36 37 35 31 26 22 19 15 13 11 11 12 12 13 13 13 13 14 14 15 16 17 18 19 20 21 21 22 23 24 25 26 27 28 28 29 29 30 30 30 31 32 33 34 35
20 21 21 22 23 24 26 27 28 28 29 29 30 30 30 30 29 28 28 27 27 28 29 29 31 32 34 35 36 35 33 32 32 33 35 36 37 37 36 36 35 36 37 37 34 28 21 17 14 13 12 12 12 12 13 14 14 15 15 15 16 18 19 20 21 23 24 25 26 27 27 28 29 30 30 31 31 31 31 31 32 32 33 34 35 36
21 21 23 24 25 26 27 28 29 29 29 29 28 28 27 26 25 25 24 24 25 26 28 29 30 32 34 35 36 36 35 33 32 33 34 36 37 37 36 36 36 36 36 36 36 32 25 18 13 11 11 11 12 13 14 15 16 16 17 17 18 19 21 22 24 25 26 27 28 29 30 31 31 32 32 32 32 33 32 32 33 33 34 35 36 37
22 24 25 26 27 27 28 29 29 29 28 27 26 24 23 22 22 22 22 23 24 26 27 29 31 32 33 34 35 36 35 33 33 33 34 36 36 36 36 36 36 36 35 35 35 34 31 24 17 12 10 11 12 13 15 16 17 18 19 19 20 21 22 24 25 26 27 28 29 30 31 32 32 33 33 33 33 33 33 33 33 33 34 35 36 37
24 26 26 27 28 28 28 28 28 27 26 24 22 20 19 19 20 20 21 22 24 25 27 29 31 33 33 34 34 34 34 33 33 33 34 35 36 36 36 36 36 36 35 34 33 33 31 28 22 16 13 12 12 14 16 17 18 20 21 22 22 23 24 25 27 28 29 30 30 31 32 32 33 33 33 32 32 32 33 32 32 32 33 34 35 36
26 27 27 28 28 28 28 27 26 25 23 21 19 18 18 18 19 20 21 22 23 25 27 29 31 32 33 34 34 33 32 32 31 32 33 34 35 36 36 35 35 36 35 34 33 32 30 28 25 21 17 15 14 15 17 19 20 21 23 24 25 25 26 27 28 30 30 31 32 33 33 33 33 33 32 32 32 32 32 32 32 32 31 32 33 34
27 27 28 28 28 27 26 25 23 21 19 17 17 17 17 18 19 20 21 22 23 25 27 28 30 31 32 32 33 33 32 31 31 31 31 33 34 35 35 35 35 35 35 34 34 32 31 28 26 24 22 19 17 16 18 20 21 23 24 25 26 27 28 29 30 31 32 33 33 34 34 34 34 33 33 33 32 33 32 32 31 31 30 30 30 31
27 27 27 27 27 26 25 23 21 18 16 16 16 17 18 19 19 20 21 22 23 25 26 27 28 29 29 30 31 32 32 31 30 30 30 31 33 34 34 34 34 34 34 34 33 32 31 29 27 25 24 22 20 19 19 20 22 23 24 25 26 27 28 29 31 32 33 34 34 34 34 34 34 34 33 33 33 33 32 31 30 29 28 28 28 29
27 27 26 26 26 25 23 21 18 16 15 15 16 17 18 19 20 20 21 22 23 25 26 27 27 28 28 29 29 30 30 31 30 30 30 30 31 32 33 33 33 33 33 33 33 32 31 30 28 26 25 24 23 22 21 21 22 23 24 25 26 27 28 29 31 32 33 34 34 34 34 34 34 33 33 33 33 32 30 29 28 27 26 26 27 28
26 26 26 25 25 24 22 19 17 15 15 15 17 18 19 19 20 20 21 22 23 25 26 27 28 28 28 28 28 29 29 30 30 30 29 29 30 30 31 32 31 31 31 31 31 31 31 31 30 29 27 26 24 24 23 23 24 24 25 26 26 27 28 29 30 32 33 34 34 34 33 33 33 33 33 33 32 30 28 27 25 25 25 25 26 27
25 25 25 25 24 23 21 18 16 15 15 16 17 19 19 20 21 21 22 23 24 25 26 28 28 29 29 28 28 28 28 29 29 29 29 29 29 29 30 30 30 30 30 30 30 30 30 30 30 30 30 28 27 25 25 25 26 27 28 28 27 27 28 29 30 32 33 33 33 33 33 33 33 33 33 32 31 29 28 26 25 24 24 24 26 27
25 25 24 24 23 22 20 18 17 16 17 17 19 20 21 22 23 23 23 23 23 25 26 28 29 29 29 28 28 27 28 28 29 29 29 28 28 28 28 29 29 29 29 29 29 29 29 29 30 30 30 30 30 29 27 27 28 29 30 31 31 30 29 30 30 31 32 33 33 33 33 34 33 33 32 30 30 29 29 27 25 24 23 24 24 25
24 24 24 23 22 21 19 18 17 17 17 18 20 22 24 25 26 25 24 23 23 24 26 27 28 29 29 28 27 27 27 27 28 28 28 28 27 27 27 27 28 28 28 28 28 28 28 29 29 30 30 31 31 31 30 30 30 31 32 34 34 33 32 31 31 32 32 33 33 33 34 34 33 32 30 29 29 29 29 28 26 24 22 22 23 24
24 24 23 23 21 20 19 17 17 17 18 19 21 23 25 27 27 26 25 24 24 25 27 28 29 29 29 28 27 27 27 27 27 28 28 27 27 26 26 26 26 27 27 28 28 28 28 28 29 30 30 31 32 32 32 32 31 32 33 34 35 34 33 32 32 32 32 33 33 33 33 34 33 31 29 28 28 29 27 26 24 23 22 22 22 23
23 23 23 22 21 20 19 18 17 17 19 20 22 24 26 27 27 27 26 26 27 27 28 29 29 30 30 30 29 28 27 26 26 27 27 27 26 26 25 25 25 26 26 27 27 27 27 28 28 29 30 31 32 33 34 34 33 33 33 34 34 35 35 33 32 32 32 32 32 32 33 33 32 29 28 27 28 28 27 25 23 21 21 21 22 23
23 23 22 22 21 20 19 18 18 18 19 20 22 24 25 26 27 27 28 28 29 29 29 30 30 30 31 31 31 31 29 27 26 26 26 26 26 25 25 25 24 25 25 26 27 27 28 28 28 29 30 31 32 33 34 35 35 34 34 33 33 34 34 34 33 32 32 31 31 31 32 32 30 28 26 26 26 27 26 25 23 22 21 21 22 23
24 23 23 22 21 20 19 18 18 19 19 20 22 23 24 25 26 27 28 29 29 30 30 30 30 31 32 32 33 32 31 29 27 26 25 25 25 25 24 24 24 24 24 25 26 27 28 28 28 29 29 30 32 33 34 35 35 35 34 33 33 32 32 32 32 32 32 32 31 31 31 31 29 27 25 25 24 25 25 24 24 23 22 22 22 22
24 24 23 22 21 20 19 19 19 19 19 20 21 23 24 26 27 27 28 29 30 30 29 30 30 31 32 33 34 34 33 31 29 28 26 25 25 24 23 23 23 23 24 24 25 25 26 27 28 29 29 30 31 31 32 33 34 34 34 33 32 32 31 31 31 31 32 32 32 31 30 29 28 27 26 24 23 23 24 24 23 22 21 21 20 19
24 24 23 23 22 21 20 20 19 20 20 21 22 23 24 26 27 28 29 29 30 30 29 29 30 31 32 33 34 34 34 33 32 30 29 27 25 24 23 23 22 22 23 23 24 24 25 26 26 27 29 29 30 30 30 31 32 32 33 32 32 31 30 30 30 30 31 31 31 31 30 29 27 26 24 23 22 22 23 23 22 21 21 20 19 18
25 24 24 23 23 22 21 21 21 21 22 22 23 23 25 26 28 29 30 30 30 29 29 29 30 31 32 32 33 33 33 33 33 32 31 29 27 25 24 23 22 22 22 22 22 23 23 24 24 25 26 28 29 29 29 29 30 30 30 31 30 30 30 29 29 30 30 30 30 30 30 29 28 27 24 23 21 21 22 22 22 22 22 22 21 20
25 25 24 24 23 23 22 22 22 23 24 24 25 25 26 27 28 29 30 30 30 29 29 29 30 31 31 32 32 32 33 33 33 32 32 31 29 27 25 23 22 21 21 21 21 22 22 22 22 22 24 25 27 28 28 28 28 28 28 28 29 29 29 28 29 29 30 30 29 28 28 28 28 26 25 25 23 21 21 21 21 23 24 25 24 24
25 25 25 24 24 23 23 23 24 24 25 26 27 27 28 28 29 29 30 30 30 29 28 28 29 30 31 31 32 32 33 33 33 33 32 31 30 28 26 25 23 22 21 20 20 21 21 20 19 19 20 22 25 26 28 28 28 28 27 27 27 27 28 28 29 29 30 29 29 28 27 27 26 25 26 26 25 23 21 20 20 21 24 25 26 25
26 25 25 24 24 24 24 24 25 26 27 28 28 29 29 29 30 30 31 31 30 29 28 28 28 29 29 30 31 32 33 33 34 33 33 32 30 29 28 26 25 24 23 22 21 21 21 20 18 16 16 19 22 25 26 28 29 29 28 27 27 27 27 28 29 29 29 29 28 27 27 26 26 27 27 28 28 27 24 21 19 20 22 25 26 27
Wind_Direction
310 310 309 309 308 308 307 307 308 308 308 308 308 309 309 308 308 308 308 307 306 305 305 305 304 304 304 303 303 303 303 303 303 302 301 299 297 295 293 292 291 291 291 292 292 292 292 293 293 293 293 293 293 293 293 293 292 291 290 289 288 287 286 284 282 281 279 277 275 274 273 272 271 270 269 267 265 263 262 260 259 257 256 255 254 253
310 309 309 308 308 308 308 308 309 309 309 308 308 308 308 308 308 307 307 307 306 305 305 305 305 305 305 305 305 305 305 305 304 303 301 299 297 295 294 294 294 294 294 295 295 295 295 295 295 295 295 295 295 295 295 294 294 293 292 291 290 289 287 286 284 282 281 278 276 274 273 271 270 269 269 269 270 270 270 268 265 263 261 260 257 255
309 309 308 308 308 308 308 308 309 309 309 308 308 308 308 308 308 307 307 307 307 306 306 307 307 307 307 307 307 307 307 306 305 304 302 300 298 298 297 297 298 298 298 298 297 297 296 296 296 295 295 295 294 294 294 293 292 292 291 291 290 288 287 286 285 283 282 280 278 276 274 272 269 268 267 270 272 273 273 271 270 268 266 265 263 261
309 309 309 309 309 309 309 309 309 308 308 308 308 308 309 309 309 308 308 308 307 307 307 308 309 309 309 309 309 309 309 308 307 306 304 303 302 301 301 300 300 299 298 297 296 295 294 293 293 292 292 291 291 291 291 290 290 290 289 289 288 287 286 285 284 283 282 280 279 277 276 274 271 268 266 267 268 269 269 269 268 267 265 264 264 262
310 310 310 310 310 310 309 309 309 309 309 309 309 309 310 310 310 309 309 309 308 308 309 310 311 311 311 311 311 311 311 311 310 309 307 305 304 303 302 300 299 297 296 295 293 292 291 290 289 289 289 289 289 289 289 289 289 289 288 287 287 286 285 284 283 282 281 280 279 278 277 275 273 270 266 262 260 259 259 260 261 261 261 260 260 260
311 311 311 311 310 310 309 309 309 309 310 310 311 311 311 311 310 310 310 310 310 310 311 312 313 313 313 313 313 313 313 313 312 311 308 306 304 302 300 298 297 295 294 292 291 290 289 289 289 289 289 289 289 289 289 289 289 288 288 287 286 286 285 284 283 282 281 280 279 278 277 276 275 273 270 265 260 257 255 254 254 254 254 254 253 254
312 312 312 311 310 310 309 310 310 310 311 312 312 312 312 312 311 311 311 311 312 312 313 314 314 314 314 314 314 314 314 314 312 310 307 305 302 300 299 297 296 295 294 293 292 291 290 290 290 290 290 290 290 290 290 290 289 288 288 287 286 285 284 283 282 281 280 280 279 279 278 277 277 275 274 271 267 263 259 256 254 252 251 250 250 249
312 312 311 311 310 310 310 310 311 312 313 313 313 314 314 313 313 312 312 312 313 314 315 315 315 314 314 314 314 314 314 313 311 309 306 304 301 300 299 299 298 298 297 295 294 293 292 292 292 292 292 291 291 291 291 290 290 289 288 287 286 285 284 283 282 281 280 280 279 279 278 277 277 276 275 274 271 268 264 261 258 255 254 253 252 251
312 311 311 310 310 310 310 311 312 314 316 316 315 315 314 314 313 313 312 312 313 314 315 315 314 314 314 314 314 314 313 313 311 309 307 304 303 302 302 302 302 301 300 298 297 296 296 295 295 295 294 294 294 293 292 292 291 290 289 288 287 286 285 284 283 282 281 280 279 278 278 277 277 276 275 274 273 271 269 265 262 259 257 255 254 253
312 312 311 311 311 311 312 312 314 316 317 316 315 315 314 314 313 313 312 312 313 314 314 314 314 314 313 313 313 313 313 312 311 309 307 306 306 306 307 307 307 306 304 302 301 301 301 301 300 300 299 298 297 296 295 293 292 291 289 288 287 287 286 285 284 283 282 281 280 279 278 278 277 276 276 275 274 273 271 269 266 264 261 258 257 255
313 313 313 312 312 313 314 314 315 316 316 315 314 313 313 313 313 312 312 312 313 314 314 314 314 314 313 313 313 313 314 313 312 310 309 308 309 310 311 312 312 311 309 308 307 307 307 307 306 305 303 302 300 299 297 295 293 291 290 289 288 287 287 286 286 285 284 283 282 281 280 279 278 277 277 276 275 274 272 271 269 267 265 262 260 258
313 313 313 313 313 313 314 315 315 315 315 314 314 313 313 312 312 311 311 311 313 314 314 314 314 313 313 314 314 315 315 316 315 314 312 312 313 314 315 315 315 315 314 313 313 313 313 312 310 308 306 304 302 300 298 295 293 291 289 288 288 287 287 287 286 286 285 285 284 283 282 281 280 279 278 277 276 275 274 273 271 269 268 266 263 261
313 312 311 311 311 311 312 313 314 314 314 314 314 314 313 312 311 310 310 311 313 314 314 314 314 313 314 314 316 317 319 319 318 317 315 315 316 317 318 318 318 318 317 317 317 317 317 315 312 310 308 306 303 300 297 295 292 290 289 288 287 287 287 287 286 286 286 286 286 286 285 284 283 282 281 279 278 277 275 274 273 271 270 268 266 264
311 310 309 308 309 310 312 313 313 314 314 314 313 312 311 310 310 310 311 311 313 314 314 313 313 313 314 316 318 320 322 322 321 318 317 317 318 320 320 319 320 320 320 320 320 320 319 317 314 312 309 306 303 300 296 293 291 289 288 287 287 286 286 286 286 287 287 287 287 287 287 286 285 284 283 282 281 279 278 277 275 274 272 271 269 267
308 308 308 308 309 311 312 314 314 314 314 313 312 311 310 310 310 310 311 311 312 313 313 312 312 313 314 317 320 323 324 323 322 319 317 318 319 321 321 320 321 321 322 322 322 322 320 318 316 313 311 307 304 300 296 293 291 289 288 287 287 286 286 286 287 287 288 288 289 289 289 289 288 288 287 286 285 284 282 281 279 278 276 274 272 270
307 307 308 309 311 312 314 314 314 313 313 312 311 309 309 309 310 310 311 311 312 313 313 313 313 313 315 318 321 324 325 324 322 319 318 318 320 321 321 321 321 322 323 324 324 323 322 320 318 315 313 309 305 301 297 295 292 291 290 289 288 287 287 288 288 289 290 290 291 292 292 292 292 292 292 291 290 289 287 286 284 282 280 277 275 273
307 308 309 311 312 314 314 314 313 312 312 310 309 308 308 309 310 310 311 311 312 313 313 314 315 316 316 318 321 325 325 324 321 319 318 318 320 322 322 321 321 322 324 325 325 325 324 322 320 318 315 311 306 303 299 297 295 294 292 291 290 290 290 290 291 292 293 294 295 296 296 297 297 297 297 296 295 293 291 289 287 285 282 280 278 275
308 309 310 312 313 314 313 313 312 311 310 309 308 308 308 308 309 309 310 311 313 314 315 315 316 316 316 317 321 325 325 323 321 319 317 318 320 322 322 322 322 323 325 327 327 327 326 324 323 320 316 312 308 304 302 300 299 298 296 295 294 293 293 294 295 296 298 299 300 300 301 301 301 301 300 300 298 297 295 292 290 287 284 281 278 275
308 309 311 312 313 312 312 311 311 310 309 308 308 308 308 308 308 309 311 312 314 315 315 315 315 315 316 317 321 324 325 323 321 319 317 318 320 323 324 323 323 324 326 328 329 329 327 326 324 321 317 313 309 307 305 304 303 303 302 300 300 299 299 299 300 301 302 303 303 304 304 305 305 305 304 303 302 300 298 296 293 290 286 282 278 274
308 310 311 312 312 311 310 310 310 309 308 308 307 307 307 308 309 311 312 313 314 314 314 314 314 315 316 318 321 324 325 324 321 319 317 318 320 323 325 324 324 326 328 329 330 330 329 328 326 322 318 314 311 309 309 308 308 308 308 307 307 307 306 306 306 306 306 306 307 308 308 309 309 309 308 307 306 304 302 299 296 293 289 285 281 276
308 310 312 312 311 310 309 309 308 308 307 307 306 307 308 310 311 312 313 314 314 314 313 313 314 315 316 319 322 325 326 324 322 319 318 318 320 324 326 326 326 327 328 330 331 331 331 330 328 324 319 315 313 312 312 312 313 313 314 314 314 314 313 312 312 311 311 312 313 314 314 314 314 313 312 310 309 307 305 303 300 297 294 290 285 281
308 310 311 311 310 308 307 307 307 307 307 306 307 308 310 311 312 313 313 313 313 313 313 313 314 315 317 320 323 326 327 325 323 320 319 318 321 324 327 327 327 328 329 331 332 333 333 332 329 325 320 316 315 315 315 316 317 318 319 320 320 320 319 319 319 319 319 320 320 320 320 319 318 316 315 313 311 309 307 305 303 300 297 294 290 285
308 310 310 310 309 307 306 306 306 307 307 308 308 309 310 311 312 312 312 313 313 313 313 313 314 316 319 321 324 326 327 326 324 321 319 318 320 324 328 328 328 329 331 333 334 334 334 334 330 325 320 317 317 317 318 320 322 324 325 327 327 327 327 326 326 326 326 326 326 324 323 321 319 317 315 313 311 309 307 304 302 300 297 294 291 288
308 309 309 309 308 306 306 306 306 308 309 309 309 309 310 310 311 311 312 313 314 314 314 314 315 317 319 322 324 326 327 327 325 321 319 318 320 324 328 329 329 330 332 334 335 335 335 334 331 325 320 319 320 322 323 325 327 330 332 333 334 334 333 332 332 331 330 329 327 325 323 321 318 316 314 312 310 308 305 303 301 298 296 293 290 287
308 308 308 307 306 305 305 306 307 308 309 310 310 310 310 310 311 311 313 314 314 314 314 314 315 317 320 322 324 326 328 328 325 322 319 319 320 324 328 330 330 331 332 334 335 335 336 335 332 326 322 323 324 326 328 330 332 334 336 336 336 335 334 333 332 331 329 327 325 323 321 319 318 316 314 312 310 308 306 304 302 299 296 294 290 287
306 306 305 304 304 304 304 305 307 308 309 310 311 311 311 311 312 312 313 314 314 313 313 313 315 318 320 322 324 326 328 329 326 323 320 320 321 324 329 331 332 332 332 334 335 336 337 337 333 327 323 324 327 329 331 332 334 335 336 335 334 333 331 330 328 327 325 323 321 319 318 317 316 314 313 312 310 309 308 306 303 301 298 296 292 289
303 302 301 301 302 302 303 305 307 309 310 312 312 312 312 312 312 312 312 312 312 312 313 314 316 319 321 322 324 326 329 329 327 324 322 322 323 326 330 332 333 332 332 334 335 337 338 338 333 326 322 324 327 329 331 332 333 333 333 332 330 328 326 324 322 320 318 316 314 313 311 310 309 309 308 308 307 307 306 304 303 301 298 295 292 290
301 300 300 301 302 304 305 307 309 311 312 313 313 313 312 311 310 310 310 310 311 312 314 316 318 320 321 321 323 326 329 330 328 325 324 324 324 327 330 332 332 332 332 333 334 337 340 340 334 326 322 323 325 327 328 329 329 329 329 328 326 324 322 320 318 317 315 314 312 310 309 308 307 306 305 305 304 304 303 302 301 300 297 294 291 289
302 302 303 304 306 308 310 312 313 314 314 314 313 311 309 308 307 307 308 310 311 313 315 317 319 320 320 321 323 325 329 331 329 327 325 324 325 326 329 331 332 332 332 332 333 336 340 343 338 327 321 319 320 320 320 321 321 321 323 324 324 323 322 321 320 319 318 317 316 315 313 312 311 309 308 307 306 305 304 304 303 301 298 295 292 289
305 306 308 310 312 313 315 315 315 315 314 312 310 308 307 306 305 306 308 311 313 314 316 317 319 320 321 322 323 325 328 330 330 327 325 324 324 326 328 330 331 332 332 332 332 334 339 344 340 328 318 314 313 312 312 312 312 314 316 318 321 322 321 321 320 320 319 319 318 317 316 314 313 312 310 309 308 307 306 305 304 302 299 296 293 290
310 312 313 315 316 317 317 317 315 314 312 310 309 307 306 305 306 307 310 312 314 315 317 318 320 322 323 324 324 326 328 330 329 326 325 324 324 326 328 329 330 331 332 332 331 332 335 338 337 326 313 307 305 305 305 306 307 308 310 313 315 318 318 318 318 318 317 317 316 315 315 313 312 311 310 309 308 307 306 305 304 302 300 297 294 291
316 318 319 320 319 319 318 317 315 314 312 311 309 308 307 306 307 309 312 314 316 318 319 321 322 323 324 324 325 326 327 329 328 326 325 324 324 325 327 328 329 330 330 330 330 329 330 331 331 322 308 300 299 300 303 305 306 308 309 311 313 314 316 316 315 315 315 314 314 314 313 312 311 310 309 308 307 306 305 304 303 301 299 297 294 291
322 323 322 322 321 320 318 317 316 315 314 313 311 310 309 308 309 311 314 317 319 321 323 324 324 325 325 325 325 326 327 328 328 327 325 324 323 324 325 326 327 328 328 328 328 327 327 327 326 321 309 298 296 298 302 304 306 309 311 312 313 314 315 315 315 315 314 315 314 314 313 312 311 309 308 307 306 305 304 303 302 300 299 296 294 290
326 325 323 322 321 320 319 318 318 317 316 315 314 312 311 311 313 316 319 321 323 325 326 326 327 327 326 326 326 327 328 329 329 327 325 323 322 322 323 325 326 326 326 327 327 326 325 324 323 320 312 302 297 299 303 305 307 309 312 314 315 316 316 316 316 316 316 316 316 316 315 314 312 310 309 308 306 305 303 302 300 299 297 296 293 290
326 325 323 322 322 321 320 320 320 319 319 317 315 313 313 315 318 321 323 325 326 327 328 329 329 329 328 328 328 328 329 330 329 327 325 322 321 320 321 323 324 325 325 325 325 325 324 323 322 319 315 308 302 301 304 307 309 310 312 314 316 317 318 318 318 318 317 317 317 317 316 315 314 312 311 310 308 306 304 302 300 298 296 294 292 289
326 325 324 323 323 322 322 322 321 321 320 318 316 315 316 319 321 324 326 327 328 329 330 331 331 330 329 329 329 330 330 330 329 327 325 322 320 319 319 321 322 323 323 323 323 323 322 321 320 318 316 313 309 306 306 308 310 311 313 314 316 317 319 319 319 319 318 319 318 318 317 316 315 314 312 311 310 308 305 303 301 299 296 293 289 286
326 326 326 325 325 324 323 323 322 322 320 319 318 318 319 321 323 324 325 326 328 330 332 333 333 332 331 330 329 330 331 331 330 327 324 321 319 318 318 319 320 321 322 322 322 322 321 320 319 318 317 316 315 315 313 312 312 313 314 315 316 318 319 320 320 320 319 319 319 318 318 317 316 315 314 313 311 310 307 305 303 300 296 291 286 282
328 328 327 327 326 325 324 323 322 321 321 320 320 320 321 321 321 322 323 325 328 331 332 333 333 333 331 330 330 330 331 331 329 327 325 322 319 318 317 318 319 320 320 320 320 320 320 319 319 319 319 318 318 319 320 319 318 316 315 315 317 319 320 321 321 321 320 320 319 319 318 318 317 317 316 315 315 314 313 310 307 302 296 290 284 279
330 329 329 328 326 325 323 321 320 319 320 320 320 321 320 320 320 320 322 325 328 331 332 332 332 332 332 331 331 330 330 330 329 328 325 322 320 318 317 317 318 319 319 319 319 319 319 319 319 320 320 320 320 320 321 322 322 320 318 317 317 319 322 323 323 322 321 320 320 319 320 320 321 320 320 319 320 322 323 321 316 310 302 294 287 282
331 330 329 328 327 324 322 319 318 318 318 319 321 321 320 319 319 320 321 325 328 330 330 330 330 331 332 332 331 330 330 329 329 328 327 324 321 319 317 317 317 317 318 318 318 318 318 318 319 320 320 321 321 321 322 323 324 323 322 321 321 322 324 325 325 324 322 322 322 323 323 324 324 323 322 324 328 332 333 331 325 318 311 304 298 292
331 331 330 329 327 325 321 318 316 317 318 319 320 321 321 321 321 322 323 326 329 330 330 330 330 331 332 332 332 331 330 329 329 329 328 326 324 321 319 317 317 317 317 317 317 317 317 317 318 319 320 320 320 320 321 323 324 324 324 324 324 324 325 327 326 325 324 324 325 326 327 327 326 324 325 329 335 339 339 335 329 323 316 311 307 305
332 332 331 330 328 325 321 318 315 316 317 319 321 323 324 325 326 327 328 330 332 332 332 331 330 331 332 333 333 333 331 331 331 330 330 328 326 323 320 319 318 318 318 318 317 317 317 317 318 318 319 319 319 319 320 321 322 323 324 324 324 324 325 327 327 326 326 326 327 329 329 329 327 326 329 335 342 345 343 338 331 324 318 314 312 312
333 333 333 332 330 327 323 319 316 315 317 320 324 327 329 330 331 331 332 333 334 334 333 332 332 332 333 335 336 335 334 333 332 331 330 329 327 324 322 320 319 319 320 319 319 318 317 317 317 317 317 317 317 317 318 319 320 321 322 323 323 324 324 326 327 327 326 327 329 331 332 332 330 330 334 341 347 349 347 340 332 324 317 314 313 314
335 335 335 334 333 330 326 321 318 317 319 323 327 331 332 333 333 333 333 333 334 334 334 333 333 333 335 336 337 337 336 335 333 332 330 329 327 325 323 321 321 321 321 321 321 320 319 318 317 317 316 316 316 316 317 317 318 319 320 321 322 322 323 325 326 327 327 329 331 334 336 335 333 333 338 347 353 354 350 344 335 326 319 314 312 313
338 338 338 336 334 331 327 323 320 320 323 327 331 333 333 333 332 332 333 333 334 334 335 335 335 335 336 337 337 337 337 336 336 334 331 329 327 325 323 322 322 322 322 323 323 323 322 321 319 318 316 315 314 315 315 316 316 317 319 320 321 321 323 324 326 327 329 331 334 337 339 338 337 338 343 350 356 357 354 347 339 331 324 319 315 314
340 340 339 338 335 332 328 325 323 323 325 329 331 332 331 330 330 331 332 333 334 334 335 335 336 336 337 337 336 337 337 338 338 338 335 332 329 326 324 322 322 322 323 324 325 325 324 323 322 319 317 315 314 313 314 314 315 316 318 319 321 322 323 324 326 328 330 333 336 340 342 342 342 343 347 351 355 357 356 351 345 339 334 329 325 322
341 341 340 338 335 332 329 326 324 324 325 326 327 328 328 328 329 329 331 332 333 334 334 335 336 336 336 336 336 337 337 339 340 340 339 336 332 329 325 323 322 321 323 324 326 326 326 326 324 321 318 316 314 313 313 313 314 316 317 319 321 322 323 325 328 330 332 335 338 342 345 345 346 348 350 352 354 357 357 356 352 347 343 340 337 334
341 340 339 337 334 332 329 326 324 323 323 323 323 324 325 326 327 328 329 330 331 332 333 334 335 336 336 336 336 336 337 338 340 341 340 338 335 332 328 324 321 320 320 322 325 327 328 327 326 323 320 316 314 314 313 314 315 316 318 319 321 322 324 326 329 332 334 337 340 344 348 350 351 352 352 352 354 357 357 356 353 348 343 340 337 335
341 339 337 335 333 331 328 325 323 322 323 323 323 323 324 325 326 327 328 329 330 331 332 332 333 334 334 335 335 336 336 337 338 339 340 339 337 334 330 326 321 319 318 320 323 326 328 329 329 327 323 319 317 316 316 316 316 317 319 321 322 323 325 328 331 334 336 338 341 346 351 355 356 355 353 352 353 354 355 353 348 343 339 337 335 333
340 337 335 333 332 330 328 325 324 324 324 325 325 326 326 327 328 329 330 330 330 330 330 330 330 331 332 333 334 335 335 335 336 337 339 339 338 336 333 329 325 321 319 319 322 325 327 330 332 332 329 325 322 320 320 319 319 320 321 323 324 326 327 330 333 336 337 339 343 348 354 359 1 359 356 353 351 350 350 348 345 343 343 344 344 341
338 336 334 332 330 329 327 326 326 327 328 328 329 329 330 331 332 333 333 333 331 330 328 327 328 328 330 331 333 333 334 335 335 337 338 338 338 337 335 333 330 327 324 323 324 327 329 332 335 339 339 334 329 326 324 323 322 323 324 325 327 328 330 332 335 337 338 340 344 350 357 2 5 4 0 356 352 348 346 345 343 345 351 354 355 353
Height
2935 2932 2930 2927 2925 2923 2919 2916 2915 2913 2910 2907 2905 2903 2901 2900 2897 2895 2893 2892 2890 2889 2887 2885 2884 2882 2881 2880 2878 2877 2875 2874 2872 2871 2869 2868 2866 2865 2863 2862 2860 2859 2858 2856 2855 2854 2852 2851 2849 2848 2846 2845 2844 2843 2841 2840 2839 2838 2837 2836 2835 2834 2833 2832 2831 2830 2829 2828 2827 2826 2826 2825 2825 2825 2825 2825 2825 2825 2825 2826 2827 2827 2828 2829 2829 2830
2931 2929 2926 2924 2922 2919 2916 2913 2910 2909 2907 2905 2902 2900 2898 2896 2894 2892 2890 2889 2887 2885 2884 2882 2880 2879 2877 2876 2875 2874 2872 2870 2869 2868 2866 2865 2863 2862 2860 2859 2858 2856 2855 2853 2852 2850 2849 2847 2846 2844 2843 2841 2840 2839 2838 2836 2835 2834 2833 2832 2830 2830 2829 2828 2827 2826 2825 2824 2823 2822 2822 2821 2821 2820 2820 2820 2820 2821 2821 2823 2823 2823 2823 2824 2824 2825
2928 2925 2922 2919 2917 2915 2913 2910 2907 2905 2903 2901 2899 2897 2895 2893 2890 2889 2887 2885 2883 2881 2880 2879 2877 2876 2874 2873 2871 2870 2869 2868 2866 2865 2863 2862 2860 2859 2858 2856 2855 2853 2852 2850 2849 2847 2845 2844 2842 2841 2840 2838 2837 2835 2834 2833 2831 2830 2829 2828 2826 2825 2824 2823 2822 2821 2820 2820 2819 2818 2817 2816 2816 2816 2816 2817 2818 2818 2819 2820 2819 2818 2819 2820 2820 2820
2924 2921 2918 2915 2913 2910 2908 2906 2904 2902 2899 2897 2895 2893 2892 2890 2887 2885 2883 2882 2880 2878 2877 2875 2874 2873 2871 2869 2868 2867 2866 2865 2863 2862 2860 2859 2858 2856 2855 2853 2852 2850 2849 2847 2846 2844 2843 2841 2840 2838 2837 2836 2834 2833 2831 2830 2828 2827 2825 2824 2823 2822 2820 2819 2818 2817 2816 2815 2814 2814 2813 2812 2812 2812 2813 2815 2815 2815 2815 2815 2814 2814 2814 2815 2815 2816
2920 2917 2914 2911 2909 2906 2904 2902 2900 2898 2896 2894 2892 2890 2889 2886 2884 2881 2880 2878 2877 2875 2874 2872 2871 2869 2868 2866 2865 2864 2863 2861 2860 2859 2858 2856 2855 2854 2852 2851 2850 2848 2846 2845 2844 2842 2840 2839 2837 2836 2835 2833 2832 2830 2829 2827 2825 2824 2823 2821 2820 2818 2816 2815 2814 2813 2812 2811 2810 2809 2809 2808 2808 2808 2808 2809 2809 2809 2810 2810 2810 2810 2810 2810 2811 2811
2915 2912 2910 2908 2905 2902 2900 2898 2897 2895 2893 2890 2888 2886 2885 2884 2881 2879 2876 2875 2873 2872 2870 2869 2868 2866 2865 2863 2862 2860 2860 2859 2858 2856 2855 2854 2852 2851 2850 2848 2847 2845 2844 2842 2841 2840 2838 2836 2835 2833 2832 2830 2829 2827 2825 2824 2822 2820 2819 2817 2816 2814 2813 2811 2810 2809 2807 2806 2806 2805 2804 2804 2804 2803 2803 2804 2804 2804 2804 2804 2804 2805 2806 2805 2805 2806
2910 2908 2906 2904 2902 2899 2897 2895 2893 2892 2890 2887 2884 2882 2881 2880 2878 2876 2874 2871 2870 2868 2867 2866 2865 2863 2862 2860 2859 2858 2857 2856 2855 2854 2853 2851 2850 2849 2847 2846 2844 2843 2841 2840 2838 2837 2835 2834 2832 2830 2829 2827 2825 2824 2822 2820 2818 2817 2815 2814 2812 2810 2809 2807 2806 2805 2803 2802 2801 2801 2800 2800 2799 2799 2799 2799 2799 2800 2800 2800 2800 2800 2800 2800 2800 2800
2907 2904 2902 2900 2898 2896 2894 2891 2890 2889 2888 2885 2882 2879 2877 2876 2874 2873 2871 2869 2867 2866 2864 2863 2862 2860 2860 2858 2857 2855 2855 2854 2853 2851 2850 2849 2847 2846 2845 2843 2842 2840 2839 2837 2835 2834 2832 2830 2829 2827 2826 2824 2822 2820 2819 2817 2815 2813 2811 2810 2808 2806 2805 2804 2802 2801 2800 2798 2798 2797 2796 2796 2795 2795 2795 2795 2795 2795 2795 2795 2796 2796 2796 2796 2796 2797
2904 2902 2899 2897 2895 2893 2891 2889 2886 2885 2884 2883 2880 2877 2875 2872 2870 2869 2868 2866 2865 2864 2862 2860 2859 2858 2857 2856 2855 2853 2852 2851 2850 2849 2847 2845 2844 2843 2841 2840 2839 2837 2836 2834 2832 2831 2829 2828 2826 2824 2822 2820 2819 2817 2815 2813 2811 2809 2807 2805 2804 2803 2801 2800 2798 2797 2796 2795 2794 2793 2793 2792 2791 2791 2791 2790 2790 2790 2790 2791 2791 2791 2792 2792 2793 2793
2899 2898 2896 2894 2891 2890 2888 2886 2884 2882 2881 2879 2877 2875 2873 2870 2868 2865 2864 2863 2863 2862 2860 2859 2856 2855 2854 2853 2852 2851 2850 2849 2848 2846 2844 2842 2841 2840 2838 2837 2835 2834 2833 2831 2829 2828 2826 2825 2823 2821 2819 2817 2815 2813 2811 2809 2807 2805 2803 2801 2800 2799 2797 2796 2795 2793 2792 2791 2790 2790 2789 2789 2788 2787 2787 2787 2786 2786 2786 2786 2786 2787 2787 2788 2788 2789
2896 2894 2892 2890 2888 2886 2885 2884 2882 2880 2879 2877 2875 2872 2871 2869 2867 2864 2861 2860 2860 2859 2858 2857 2855 2853 2851 2850 2850 2849 2848 2846 2845 2844 2842 2840 2838 2836 2835 2834 2832 2831 2830 2828 2826 2825 2823 2821 2819 2817 2815 2814 2811 2810 2807 2805 2803 2801 2799 2798 2796 2795 2793 2792 2791 2790 2789 2788 2787 2786 2786 2785 2785 2784 2784 2783 2783 2783 2783 2783 2783 2783 2783 2783 2784 2785
2893 2891 2889 2887 2886 2884 2883 2881 2880 2878 2877 2875 2872 2870 2868 2867 2865 2863 2860 2857 2856 2856 2855 2854 2853 2851 2849 2847 2846 2846 2845 2844 2842 2840 2839 2836 2835 2833 2831 2830 2829 2828 2826 2825 2823 2822 2820 2818 2816 2814 2812 2810 2808 2806 2804 2801 2800 2797 2796 2794 2792 2791 2790 2789 2788 2786 2785 2785 2784 2783 2783 2782 2781 2781 2780 2780 2780 2780 2779 2779 2779 2779 2779 2780 2780 2780
2891 2890 2887 2885 2884 2883 2881 2880 2878 2876 2874 2873 2870 2867 2865 2864 2862 2861 2858 2856 2855 2853 2852 2850 2850 2849 2848 2846 2844 2843 2842 2841 2839 2838 2836 2834 2832 2830 2829 2827 2826 2825 2823 2822 2820 2819 2817 2815 2813 2811 2809 2807 2805 2803 2800 2798 2796 2794 2792 2790 2789 2788 2787 2785 2784 2783 2782 2781 2781 2780 2779 2779 2778 2778 2778 2777 2776 2776 2776 2775 2775 2775 2775 2776 2776 2776
2889 2888 2886 2884 2882 2881 2880 2878 2876 2873 2872 2870 2868 2866 2863 2861 2860 2858 2856 2854 2853 2851 2850 2848 2847 2846 2845 2844 2842 2840 2839 2837 2836 2835 2833 2831 2830 2828 2826 2824 2823 2822 2820 2819 2817 2815 2814 2812 2810 2808 2806 2804 2802 2799 2797 2795 2792 2790 2789 2787 2786 2785 2784 2782 2781 2780 2779 2779 2778 2777 2776 2776 2775 2775 2774 2774 2773 2773 2772 2772 2772 2772 2772 2772 2772 2772
2887 2886 2884 2881 2880 2879 2878 2876 2873 2871 2869 2868 2866 2864 2861 2860 2858 2856 2854 2852 2850 2849 2848 2846 2845 2844 2843 2842 2840 2838 2836 2834 2833 2831 2830 2829 2827 2826 2824 2821 2820 2819 2818 2816 2814 2812 2811 2809 2806 2804 2802 2800 2798 2795 2793 2791 2789 2787 2785 2784 2783 2782 2781 2780 2779 2778 2777 2776 2775 2774 2773 2773 2772 2771 2771 2770 2770 2770 2770 2769 2769 2769 2769 2769 2768 2769
2885 2884 2881 2879 2877 2876 2875 2873 2871 2869 2867 2865 2864 2862 2860 2857 2855 2854 2852 2850 2849 2847 2845 2844 2842 2841 2840 2840 2839 2837 2834 2832 2830 2828 2827 2825 2825 2824 2822 2819 2817 2816 2815 2813 2811 2809 2807 2805 2803 2801 2799 2796 2794 2791 2789 2787 2785 2784 2782 2781 2780 2779 2778 2777 2776 2775 2774 2773 2772 2771 2770 2770 2769 2769 2768 2768 2767 2767 2767 2766 2766 2765 2765 2765 2765 2765
2883 2881 2879 2877 2875 2874 2872 2871 2869 2867 2865 2863 2861 2860 2858 2856 2854 2852 2850 2849 2847 2845 2843 2842 2840 2838 2836 2837 2837 2836 2833 2830 2827 2825 2824 2823 2822 2822 2820 2817 2815 2813 2812 2810 2809 2806 2804 2802 2800 2797 2795 2792 2790 2787 2785 2784 2782 2781 2780 2778 2777 2776 2775 2774 2773 2772 2771 2771 2770 2769 2768 2768 2767 2766 2766 2765 2765 2764 2764 2763 2763 2763 2762 2762 2762 2762
2880 2879 2877 2875 2873 2871 2870 2868 2867 2865 2863 2861 2859 2857 2856 2854 2852 2850 2849 2847 2845 2844 2842 2840 2838 2836 2835 2833 2834 2834 2832 2829 2825 2823 2821 2820 2820 2819 2818 2815 2812 2810 2809 2807 2805 2803 2801 2799 2796 2794 2791 2789 2786 2784 2782 2781 2779 2778 2776 2775 2774 2773 2772 2771 2770 2770 2769 2769 2768 2767 2766 2765 2765 2764 2763 2762 2762 2761 2761 2760 2760 2759 2759 2759 2759 2759
2877 2876 2875 2873 2871 2869 2868 2866 2865 2863 2861 2859 2857 2855 2854 2852 2851 2849 2848 2846 2844 2842 2840 2838 2836 2835 2833 2831 2831 2831 2830 2827 2824 2821 2818 2817 2816 2816 2815 2813 2810 2808 2806 2805 2803 2800 2798 2796 2793 2791 2788 2786 2784 2781 2780 2778 2776 2775 2774 2773 2772 2771 2770 2769 2769 2768 2767 2766 2765 2765 2764 2763 2762 2761 2761 2760 2759 2759 2758 2757 2757 2756 2756 2756 2755 2755
2875 2874 2873 2872 2869 2867 2865 2864 2863 2861 2859 2857 2855 2853 2852 2850 2849 2848 2846 2845 2843 2841 2839 2837 2835 2833 2831 2830 2829 2829 2827 2825 2821 2818 2816 2814 2813 2813 2812 2810 2808 2805 2804 2803 2800 2798 2795 2793 2791 2788 2786 2784 2781 2779 2777 2776 2774 2773 2772 2771 2770 2769 2768 2768 2767 2766 2765 2765 2764 2763 2762 2761 2760 2759 2759 2758 2757 2756 2756 2755 2755 2754 2753 2753 2752 2752
2873 2871 2871 2870 2868 2865 2863 2862 2861 2860 2858 2856 2854 2852 2850 2848 2847 2845 2844 2843 2841 2839 2837 2835 2833 2831 2830 2828 2827 2826 2825 2822 2819 2816 2813 2811 2810 2810 2810 2808 2805 2803 2802 2800 2798 2796 2793 2791 2788 2786 2784 2781 2780 2777 2775 2774 2772 2771 2770 2769 2768 2768 2767 2766 2765 2764 2764 2763 2762 2761 2760 2759 2758 2758 2757 2756 2755 2755 2754 2753 2752 2751 2751 2750 2750 2749
2870 2869 2869 2868 2866 2864 2861 2860 2859 2858 2856 2855 2852 2850 2849 2847 2845 2844 2842 2841 2839 2837 2835 2833 2831 2830 2828 2827 2825 2824 2823 2820 2817 2814 2811 2808 2807 2808 2808 2805 2803 2801 2799 2798 2796 2794 2791 2789 2786 2784 2782 2780 2778 2776 2774 2773 2771 2770 2769 2768 2767 2766 2765 2765 2764 2763 2762 2761 2760 2760 2759 2758 2757 2756 2755 2755 2754 2753 2752 2751 2750 2750 2749 2748 2747 2747
2869 2867 2866 2865 2864 2862 2860 2858 2857 2856 2855 2853 2852 2850 2848 2846 2844 2842 2840 2839 2837 2835 2833 2831 2829 2828 2826 2825 2824 2823 2821 2819 2816 2813 2810 2806 2805 2805 2805 2803 2801 2799 2797 2795 2793 2791 2790 2788 2785 2783 2780 2779 2777 2775 2774 2772 2771 2770 2769 2767 2766 2765 2764 2763 2762 2762 2761 2760 2759 2759 2758 2757 2756 2755 2754 2754 2753 2752 2751 2750 2749 2748 2747 2746 2745 2745
2867 2866 2865 2863 2862 2860 2859 2857 2855 2854 2853 2852 2850 2848 2846 2845 2843 2841 2839 2837 2835 2833 2830 2828 2827 2825 2825 2824 2823 2821 2820 2818 2815 2812 2808 2805 2803 2803 2803 2801 2799 2797 2795 2793 2791 2789 2787 2786 2784 2781 2779 2777 2776 2775 2773 2772 2770 2769 2768 2767 2766 2765 2764 2763 2762 2761 2760 2759 2758 2758 2757 2756 2755 2754 2753 2752 2751 2750 2749 2748 2747 2746 2745 2744 2743 2742
2866 2864 2863 2861 2860 2859 2857 2856 2855 2853 2852 2850 2848 2846 2845 2843 2841 2839 2837 2835 2833 2831 2829 2826 2825 2824 2823 2822 2821 2820 2819 2817 2814 2811 2807 2804 2802 2801 2801 2800 2797 2795 2793 2791 2790 2788 2785 2784 2782 2780 2778 2776 2775 2774 2773 2771 2770 2769 2768 2766 2765 2764 2763 2762 2761 2760 2759 2758 2757 2756 2755 2755 2753 2752 2751 2750 2749 2748 2747 2746 2745 2744 2743 2742 2741 2740
2865 2863 2861 2860 2859 2858 2856 2855 2854 2852 2851 2849 2847 2845 2842 2840 2839 2837 2835 2833 2831 2830 2827 2825 2824 2822 2821 2820 2819 2818 2817 2815 2813 2810 2806 2803 2800 2799 2799 2798 2795 2793 2790 2789 2788 2786 2784 2782 2780 2779 2777 2776 2775 2774 2773 2771 2770 2769 2768 2766 2765 2764 2763 2762 2761 2760 2759 2758 2757 2755 2755 2753 2752 2751 2750 2748 2747 2746 2745 2743 2742 2741 2740 2739 2737 2736
2864 2862 2860 2859 2858 2856 2855 2854 2852 2851 2849 2847 2845 2843 2841 2838 2836 2835 2833 2832 2830 2828 2826 2824 2822 2821 2820 2819 2818 2816 2815 2814 2811 2808 2805 2802 2799 2797 2796 2795 2793 2791 2789 2787 2785 2784 2782 2781 2779 2778 2776 2775 2774 2773 2772 2771 2770 2769 2767 2766 2765 2764 2763 2762 2760 2760 2758 2757 2756 2755 2754 2752 2751 2750 2748 2747 2745 2744 2742 2741 2740 2738 2737 2735 2734 2732
2862 2861 2860 2858 2857 2855 2854 2852 2851 2849 2848 2846 2844 2841 2839 2837 2835 2834 2832 2831 2829 2827 2825 2824 2822 2820 2818 2817 2815 2815 2814 2812 2809 2806 2803 2800 2797 2795 2795 2793 2792 2790 2787 2785 2784 2783 2781 2780 2778 2777 2775 2775 2774 2773 2772 2770 2770 2768 2767 2766 2765 2764 2762 2761 2760 2759 2758 2756 2755 2754 2752 2751 2749 2748 2746 2745 2744 2742 2740 2739 2737 2736 2734 2732 2730 2729
2861 2860 2858 2857 2855 2854 2852 2850 2849 2847 2846 2844 2842 2840 2838 2836 2834 2832 2831 2829 2828 2826 2825 2823 2821 2819 2817 2815 2814 2813 2812 2810 2808 2804 2801 2799 2796 2794 2793 2792 2790 2788 2785 2783 2781 2780 2780 2779 2777 2775 2775 2774 2773 2772 2771 2770 2769 2768 2766 2765 2764 2763 2761 2760 2759 2758 2756 2755 2753 2752 2750 2749 2747 2746 2744 2743 2741 2740 2738 2737 2735 2733 2731 2729 2727 2725
2860 2858 2857 2855 2854 2852 2850 2849 2847 2845 2844 2842 2840 2839 2837 2835 2833 2831 2830 2828 2827 2825 2824 2822 2820 2818 2816 2813 2811 2810 2810 2809 2806 2803 2800 2797 2795 2793 2792 2790 2789 2787 2784 2781 2779 2778 2778 2777 2776 2775 2774 2772 2771 2770 2770 2769 2768 2767 2765 2764 2763 2762 2760 2759 2757 2756 2755 2753 2752 2750 2749 2747 2745 2744 2742 2740 2739 2737 2736 2734 2732 2730 2728 2725 2723 2721
2858 2857 2855 2854 2852 2850 2848 2847 2845 2844 2842 2840 2839 2837 2835 2833 2832 2830 2829 2827 2826 2824 2823 2821 2819 2817 2815 2812 2810 2808 2806 2806 2805 2802 2799 2796 2794 2791 2790 2789 2787 2785 2784 2781 2778 2776 2775 2775 2775 2774 2773 2771 2770 2770 2768 2767 2766 2765 2764 2763 2762 2760 2759 2757 2755 2754 2753 2751 2750 2748 2747 2745 2743 2741 2740 2738 2736 2735 2733 2731 2730 2727 2725 2722 2720 2718
2856 2855 2853 2851 2850 2848 2846 2845 2843 2841 2840 2838 2837 2835 2834 2832 2831 2830 2828 2827 2825 2823 2822 2820 2818 2816 2814 2812 2809 2807 2805 2804 2803 2800 2798 2795 2792 2790 2789 2787 2785 2784 2783 2781 2779 2776 2774 2773 2773 2773 2772 2770 2770 2768 2767 2766 2765 2764 2762 2761 2760 2759 2757 2755 2754 2752 2751 2750 2748 2746 2745 2743 2741 2739 2737 2735 2734 2732 2730 2728 2727 2725 2722 2719 2716 2714
2854 2853 2851 2849 2848 2846 2845 2843 2841 2839 2838 2836 2835 2834 2832 2831 2830 2829 2827 2826 2824 2823 2821 2819 2816 2814 2812 2810 2808 2806 2804 2803 2801 2799 2796 2794 2791 2789 2787 2786 2785 2783 2781 2780 2778 2776 2774 2772 2771 2770 2770 2769 2768 2767 2766 2765 2763 2762 2760 2759 2758 2756 2755 2754 2752 2750 2748 2747 2745 2744 2742 2740 2739 2737 2735 2733 2731 2729 2727 2725 2723 2721 2719 2716 2713 2710
2852 2851 2849 2847 2846 2844 2843 2841 2839 2837 2836 2835 2833 2832 2831 2830 2829 2828 2826 2825 2824 2822 2820 2818 2815 2813 2810 2808 2806 2805 2803 2802 2800 2798 2796 2793 2790 2788 2786 2785 2783 2781 2779 2778 2776 2775 2773 2771 2770 2769 2768 2767 2767 2766 2765 2763 2762 2760 2759 2757 2755 2754 2753 2751 2749 2747 2746 2744 2742 2741 2739 2737 2735 2734 2732 2730 2728 2726 2724 2722 2720 2718 2716 2713 2710 2707
2850 2849 2847 2845 2844 2842 2841 2839 2837 2836 2835 2833 2832 2831 2830 2829 2828 2827 2825 2824 2823 2821 2819 2817 2815 2812 2810 2807 2805 2803 2802 2800 2799 2797 2795 2793 2790 2787 2785 2784 2782 2780 2778 2776 2775 2773 2771 2770 2769 2767 2766 2765 2765 2764 2763 2761 2760 2758 2757 2755 2754 2752 2750 2749 2746 2745 2743 2741 2739 2738 2736 2734 2732 2730 2728 2726 2725 2722 2720 2718 2716 2714 2712 2710 2708 2705
2849 2847 2846 2844 2842 2840 2839 2838 2836 2835 2834 2832 2831 2830 2829 2828 2827 2826 2825 2823 2822 2820 2818 2816 2814 2812 2810 2807 2805 2802 2800 2799 2798 2796 2795 2792 2790 2787 2785 2783 2781 2780 2777 2775 2773 2772 2770 2768 2767 2766 2765 2763 2762 2762 2761 2760 2759 2757 2755 2754 2752 2751 2749 2747 2745 2742 2740 2738 2736 2735 2733 2731 2729 2727 2725 2723 2721 2719 2716 2714 2712 2710 2708 2706 2704 2702
2847 2846 2844 2842 2840 2839 2838 2836 2835 2834 2833 2831 2830 2829 2828 2827 2826 2825 2824 2822 2821 2819 2817 2815 2813 2811 2809 2807 2804 2802 2800 2798 2796 2795 2793 2791 2789 2787 2784 2782 2780 2779 2777 2774 2772 2770 2769 2767 2765 2764 2763 2762 2760 2759 2759 2758 2757 2755 2754 2752 2751 2749 2747 2745 2743 2741 2738 2736 2734 2732 2730 2728 2726 2724 2722 2720 2717 2715 2712 2710 2708 2706 2704 2702 2700 2699
2846 2844 2843 2841 2839 2838 2836 2835 2834 2833 2832 2830 2829 2828 2827 2826 2825 2824 2822 2821 2819 2818 2816 2814 2812 2810 2808 2806 2804 2801 2799 2797 2795 2794 2792 2790 2788 2786 2783 2781 2779 2778 2776 2774 2771 2769 2767 2765 2763 2762 2761 2760 2759 2758 2756 2755 2754 2753 2751 2750 2749 2747 2745 2744 2741 2739 2736 2734 2732 2730 2728 2726 2723 2720 2718 2715 2713 2710 2708 2705 2704 2701 2700 2698 2696 2695
2845 2843 2841 2840 2838 2836 2835 2834 2833 2832 2830 2829 2828 2827 2826 2825 2824 2822 2821 2820 2818 2816 2814 2812 2811 2809 2807 2805 2803 2801 2799 2797 2795 2793 2791 2789 2787 2785 2783 2780 2778 2776 2775 2773 2771 2769 2766 2764 2762 2760 2759 2757 2756 2755 2755 2754 2752 2750 2748 2747 2746 2745 2744 2742 2740 2737 2735 2732 2730 2728 2725 2723 2720 2717 2715 2712 2709 2706 2703 2701 2699 2697 2695 2693 2692 2690
2843 2842 2840 2839 2837 2835 2834 2833 2832 2830 2829 2828 2827 2826 2825 2824 2822 2821 2820 2818 2816 2815 2813 2811 2809 2807 2805 2804 2802 2800 2798 2796 2794 2792 2790 2788 2786 2784 2782 2780 2777 2775 2773 2772 2770 2768 2766 2764 2761 2760 2758 2755 2754 2753 2752 2751 2750 2748 2746 2744 2742 2742 2741 2740 2737 2735 2732 2730 2727 2725 2722 2720 2717 2714 2711 2709 2706 2703 2700 2698 2696 2694 2692 2690 2688 2686
2842 2841 2839 2838 2836 2835 2833 2832 2831 2830 2828 2827 2826 2825 2823 2822 2820 2819 2818 2816 2815 2813 2811 2809 2808 2806 2805 2803 2801 2799 2797 2795 2793 2790 2789 2786 2785 2783 2780 2779 2776 2774 2772 2770 2769 2767 2765 2762 2760 2758 2756 2755 2753 2751 2750 2749 2748 2746 2744 2741 2739 2738 2737 2737 2735 2732 2730 2728 2725 2723 2720 2717 2714 2711 2709 2706 2703 2700 2698 2696 2693 2691 2690 2688 2686 2684
2841 2840 2838 2836 2835 2834 2832 2831 2830 2829 2827 2826 2825 2823 2822 2820 2818 2817 2815 2814 2812 2811 2809 2807 2805 2804 2802 2801 2800 2798 2796 2794 2792 2789 2787 2785 2783 2781 2779 2777 2775 2773 2771 2769 2767 2765 2764 2762 2759 2757 2755 2753 2751 2749 2748 2747 2746 2745 2743 2740 2738 2735 2735 2734 2733 2730 2728 2725 2723 2721 2718 2715 2711 2708 2705 2703 2700 2698 2696 2694 2692 2690 2687 2685 2684 2682
2840 2838 2837 2835 2834 2833 2831 2830 2829 2828 2826 2825 2824 2822 2820 2819 2817 2815 2813 2812 2810 2809 2807 2805 2803 2801 2800 2799 2797 2796 2795 2793 2791 2788 2786 2784 2782 2780 2778 2776 2774 2772 2770 2768 2765 2764 2762 2760 2759 2756 2754 2752 2750 2748 2746 2745 2744 2743 2741 2740 2737 2734 2732 2731 2730 2729 2726 2724 2722 2719 2716 2712 2709 2706 2703 2700 2697 2695 2693 2691 2690 2688 2686 2684 2681 2680
2839 2837 2835 2834 2833 2831 2830 2829 2828 2827 2825 2824 2823 2821 2820 2818 2816 2814 2812 2810 2809 2807 2805 2803 2801 2800 2798 2796 2795 2794 2792 2791 2790 2788 2785 2783 2780 2778 2776 2775 2773 2771 2769 2767 2765 2762 2760 2759 2757 2755 2753 2751 2749 2747 2745 2743 2741 2740 2740 2738 2736 2734 2731 2729 2727 2726 2724 2722 2720 2717 2714 2710 2707 2704 2700 2697 2695 2693 2691 2690 2687 2685 2684 2682 2680 2678
2837 2836 2835 2833 2832 2830 2829 2828 2827 2825 2824 2823 2821 2820 2818 2817 2815 2813 2811 2809 2807 2806 2804 2802 2800 2798 2796 2794 2793 2791 2790 2789 2787 2786 2784 2782 2779 2777 2775 2773 2771 2769 2767 2765 2764 2761 2759 2757 2755 2754 2752 2750 2748 2746 2744 2741 2740 2738 2737 2736 2735 2733 2730 2729 2726 2724 2722 2720 2718 2715 2712 2709 2705 2702 2698 2695 2693 2691 2690 2688 2686 2684 2682 2680 2679 2677
2836 2835 2833 2832 2830 2829 2828 2827 2825 2824 2823 2822 2820 2819 2817 2815 2814 2812 2810 2808 2806 2805 2803 2801 2799 2797 2795 2793 2791 2789 2787 2786 2785 2783 2781 2780 2778 2775 2774 2771 2770 2768 2766 2764 2762 2760 2759 2756 2754 2752 2750 2748 2746 2745 2743 2741 2738 2736 2735 2734 2733 2731 2729 2727 2725 2723 2720 2718 2716 2713 2710 2707 2704 2700 2696 2694 2691 2690 2688 2687 2685 2683 2681 2679 2678 2676
2835 2834 2832 2831 2830 2828 2827 2825 2824 2823 2822 2820 2819 2818 2816 2814 2812 2810 2809 2807 2805 2803 2801 2800 2798 2796 2794 2792 2790 2788 2785 2784 2782 2781 2779 2777 2775 2774 2772 2770 2768 2767 2765 2763 2761 2760 2758 2755 2753 2751 2748 2746 2744 2743 2741 2740 2738 2735 2734 2732 2730 2729 2727 2725 2724 2722 2719 2717 2714 2712 2709 2705 2702 2698 2695 2692 2690 2688 2687 2686 2685 2683 2681 2679 2677 2675
2834 2832 2831 2830 2828 2827 2825 2824 2823 2822 2820 2819 2818 2817 2815 2813 2811 2810 2808 2806 2804 2802 2800 2799 2797 2795 2793 2791 2790 2787 2785 2783 2781 2779 2777 2775 2773 2771 2770 2768 2767 2765 2764 2762 2760 2759 2757 2755 2753 2750 2748 2745 2742 2740 2739 2738 2737 2735 2733 2731 2729 2727 2725 2724 2722 2720 2718 2715 2713 2711 2708 2704 2700 2697 2694 2691 2689 2687 2686 2685 2684 2683 2681 2679 2676 2674
2833 2831 2830 2828 2827 2826 2825 2823 2822 2820 2819 2818 2817 2815 2814 2813 2811 2809 2807 2805 2803 2801 2799 2797 2795 2794 2792 2790 2789 2787 2785 2782 2780 2778 2776 2773 2771 2769 2768 2766 2765 2763 2762 2761 2759 2758 2756 2754 2752 2750 2747 2744 2741 2739 2737 2736 2735 2734 2732 2730 2728 2726 2724 2722 2720 2718 2716 2714 2712 2710 2707 2704 2700 2697 2693 2690 2688 2686 2685 2684 2684 2682 2680 2678 2675 2673
2832 2830 2829 2827 2826 2825 2823 2822 2820 2819 2818 2817 2815 2814 2813 2811 2810 2808 2806 2804 2802 2800 2799 2797 2795 2792 2790 2789 2787 2785 2783 2781 2779 2777 2775 2772 2770 2768 2766 2764 2763 2761 2760 2759 2758 2756 2755 2753 2752 2750 2747 2744 2740 2738 2736 2734 2733 2731 2730 2729 2727 2725 2722 2720 2718 2717 2715 2713 2710 2708 2705 2702 2699 2695 2693 2690 2687 2685 2684 2683 2683 2681 2679 2676 2674 2671
2831 2830 2828 2826 2825 2824 2822 2821 2820 2818 2817 2816 2814 2813 2811 2810 2808 2807 2805 2803 2801 2799 2798 2796 2794 2792 2790 2787 2786 2784 2782 2780 2778 2775 2774 2771 2769 2766 2765 2762 2761 2759 2757 2756 2755 2754 2753 2751 2750 2749 2747 2744 2741 2737 2735 2732 2730 2729 2728 2726 2725 2723 2721 2719 2717 2715 2713 2711 2709 2706 2703 2700 2697 2694 2692 2690 2687 2685 2683 2682 2681 2680 2678 2675 2672 2670